Regional Weather Roundup
Issued by NWS

Home | Current Version | Previous Version | Graphics & Text | Print | Product List | Glossary On
Versions: 1 2 3 4 5 6 7 8 9 10 11 12 13 14 15 16 17 18 19 20 21 22 23 24 25 26 27 28 29 30 31 32 33 34 35 36 37 38 39 40 41 42 43 44 45 46 47 48 49 50
000
ASUS43 KTOP 070359
RWRKS

WEATHER ROUNDUP FOR KANSAS
NATIONAL WEATHER SERVICE GOODLAND KS
1100 PM CDT MON JUL 06 2015

NOTE:  "FAIR" INDICATES FEW OR NO CLOUDS BELOW 12,000 FEET WITH NO
SIGNIFICANT WEATHER AND/OR OBSTRUCTIONS TO VISIBILITY.

KSZ001>006-013>018-027>032-041>047-070500-
NORTHWEST KANSAS

CITY           SKY/WX    TMP DP  RH WIND       PRES   REMARKS
GOODLAND       CLOUDY    64  54  69 NE7       30.21R HAZE
HAYS           CLOUDY    72  55  56 NE15      30.09R
HILL CITY      CLOUDY    67  55  65 N9        30.12S HAZE
RUSSELL        CLOUDY    71  60  68 N18       30.06R HAZE
$$

KSZ061>065-074>080-084>089-070500-
SOUTHWEST KANSAS

CITY           SKY/WX    TMP DP  RH WIND       PRES   REMARKS
DODGE CITY     CLOUDY    71  58  63 NE16G23   30.09R
ELKHART          N/A     70  56  61 N9          N/A
GARDEN CITY    CLOUDY    69  52  54 NE15      30.11R HAZE
GREAT BEND     CLOUDY    70  61  73 NE21      30.06S
LIBERAL        CLOUDY    70  61  73 N7        30.12R
$$

KSZ066>073-081>083-090>101-070500-
SOUTHEAST KANSAS

CITY           SKY/WX    TMP DP  RH WIND       PRES   REMARKS
CHANUTE        LGT RAIN  71  71 100 S5        29.95R
COFFEYVILLE    LGT RAIN  73  72  96 SE8       29.91F
HUTCHINSON     LGT RAIN  70  67  90 N17G25    30.01R FOG
MEDICINE LODGE   N/A     73  67  81 N16G25    29.99R
NEWTON         CLOUDY    70  66  88 N13       30.00R
PARSONS        TSTM      72  71  97 VRB3      29.95S
WICHITA INTL   HVY RAIN  73  71  93 N14       29.97R FOG
WICHITA JABRA  RAIN      71  70  96 E6        29.97R FOG
WICHITA MCCONL CLOUDY    72  70  94 E3        29.97R FOG
WINFIELD       TSTM      71  70  96 S3        29.98R FOG
$$

KSZ007>012-019>026-033>040-048>060-102>105-070500-
NORTHEAST KANSAS

CITY           SKY/WX    TMP DP  RH WIND       PRES   REMARKS
CONCORDIA      CLOUDY    70  61  73 N15       30.05R HAZE
EMPORIA        CLOUDY    70  69  97 SW6       29.96R
LAWRENCE       CLOUDY    73  71  93 NW8       29.93R
MANHATTAN      CLOUDY    71  68  90 NE12      29.99R
OLATHE IND     CLOUDY    72  71  97 W8        29.94R
OLATHE EXE     CLOUDY    70  70 100 NW8       29.93R
SALINA         CLOUDY    72  66  81 N13       30.01R
TOPEKA BILLARD LGT RAIN  69  68  96 N10G22    29.96R FOG
TOPEKA FORBES  LGT RAIN  73  70  90 N7        29.95R FOG
$$


USA.gov is the U.S. government's official web portal to all federal, state and local government web resources and services.